Location: Huntsville
(41.2590°N, 111.7678°W)
Time: 07:02:52
(UTC+00:00)

Vanguard 3 - Pass Details

Date: 21 June 2021
Orbit: 508 x 3261 km, 33.4° (Epoch: 29 July)

Event Time Altitude Azimuth Distance (km) Brightness Sun altitude
Rises 15:07:52 0° 243° (WSW) 2,603 9.3 33.4°
Reaches altitude 10° 15:10:10 10° 229° (SW) 1,719 8.5 33.9°
Maximum altitude 15:13:19 26° 170° (S) 1,094 8.2 34.4°
Drops below altitude 10° 15:17:06 10° 113° (ESE) 2,081 10.4 35.2°
Sets 15:20:12 0° 101° (E) 3,302 11.2 35.7°
